FW9150 Weather Reports


Display with metric or nautical units.
time (UTC)temp
F
wind
direction
speed
MPH
gust
MPH
rain 1hr
in
rain 24hr
in
rain mn
in
humidity
%
barometer
mb
20260508170213 71 180 0.0 1.0 0.00 0.00 0.00 32 1024.7
20260508164214 68 315 0.0 2.0 0.00 0.00 0.00 32 1024.8
20260508163215 68 180 0.0 0.0 0.00 0.00 0.00 33 1024.8
20260508162214 67 157 0.0 1.0 0.00 0.00 0.00 36 1024.7
20260508161216 65 141 0.0 3.0 0.00 0.00 0.00 40 1024.7
20260508160214 62 180 0.0 1.0 0.00 0.00 0.00 47 1024.8
20260508155229 60 180 0.0 1.0 0.00 0.00 0.00 45 1024.8
20260508154216 59 180 0.0 1.0 0.00 0.00 0.00 48 1024.8
20260508153214 57 337 0.0 0.0 0.00 0.00 0.00 60 1024.7
20260508152313 56 337 0.0 0.0 0.00 0.00 0.00 65 1024.7
20260508150314 54 337 0.0 0.0 0.00 0.00 0.00 63 1024.6
20260508145315 54 337 0.0 0.0 0.00 0.00 0.00 66 1024.6
20260508144315 53 337 0.0 0.0 0.00 0.00 0.00 68 1024.6
20260508143414 52 337 0.0 0.0 0.00 0.00 0.00 68 1024.5
20260508142415 52 337 0.0 0.0 0.00 0.00 0.00 70 1024.4
20260508141513 51 337 0.0 0.0 0.00 0.00 0.00 72 1024.3
20260508135613 51 337 0.0 0.0 0.00 0.00 0.00 73 1024.3
20260508134615 51 337 0.0 0.0 0.00 0.00 0.00 72 1024.2
20260508133614 50 337 0.0 0.0 0.00 0.00 0.00 73 1024.1
20260508132614 49 270 0.0 1.0 0.00 0.00 0.00 76 1024.0
20260508131613 49 157 0.0 0.0 0.00 0.00 0.00 76 1024.0
20260508130614 49 157 0.0 0.0 0.00 0.00 0.00 77 1024.1
20260508124615 49 157 0.0 0.0 0.00 0.00 0.00 77 1024.0
20260508123713 49 157 0.0 0.0 0.00 0.00 0.00 76 1024.1
20260508122715 49 157 0.0 0.0 0.00 0.00 0.00 76 1024.0
20260508121713 49 157 0.0 0.0 0.00 0.00 0.00 77 1024.0
20260508120714 49 157 0.0 0.0 0.00 0.00 0.00 77 1024.0
20260508115716 49 157 0.0 0.0 0.00 0.00 0.00 77 1024.0
20260508113713 48 157 0.0 0.0 0.00 0.00 0.00 77 1024.0
20260508111714 48 157 0.0 0.0 0.00 0.00 0.00 80 1024.1
20260508110713 48 157 0.0 0.0 0.00 0.00 0.00 79 1024.0
20260508103739 50 157 0.0 0.0 0.00 0.00 0.00 78 1024.2
20260508103513 49 157 0.0 0.0 0.00 0.00 0.00 78 1024.1
20260508102516 49 157 0.0 0.0 0.00 0.00 0.00 78 1024.0
20260508101515 49 157 0.0 0.0 0.00 0.00 0.00 79 1024.2
20260508100613 49 157 0.0 0.0 0.00 0.00 0.00 77 1024.1
20260508095613 49 157 0.0 0.0 0.00 0.00 0.00 76 1024.1
20260508093713 50 157 0.0 0.0 0.00 0.00 0.00 74 1024.1
20260508092713 50 157 0.0 0.0 0.00 0.00 0.00 71 1024.1
20260508090715 51 157 0.0 0.0 0.00 0.00 0.00 69 1024.1
20260508085813 51 157 0.0 0.0 0.00 0.00 0.00 68 1024.1
20260508084817 51 157 0.0 0.0 0.00 0.00 0.00 67 1024.1
20260508083814 51 157 0.0 0.0 0.00 0.00 0.00 66 1024.1
20260508082814 50 157 0.0 0.0 0.00 0.00 0.00 67 1024.2
20260508081816 49 157 0.0 0.0 0.00 0.00 0.00 71 1024.3
20260508080813 50 157 0.0 0.0 0.00 0.00 0.00 72 1024.4
20260508075815 50 157 0.0 0.0 0.00 0.00 0.00 71 1024.5
20260508074814 50 157 0.0 0.0 0.00 0.00 0.00 71 1024.5
20260508072815 50 157 0.0 0.0 0.00 0.00 0.00 71 1024.7
20260508071816 49 157 0.0 0.0 0.00 0.00 0.00 74 1024.7
20260508070814 50 157 0.0 0.0 0.00 0.00 0.00 74 1024.7
20260508065827 50 157 0.0 0.0 0.00 0.00 0.00 76 1024.8
20260508064845 50 157 0.0 0.0 0.00 0.00 0.00 77 1024.7
20260508063826 50 157 0.0 0.0 0.00 0.00 0.00 78 1024.8
20260508062842 50 157 0.0 0.0 0.00 0.00 0.00 78 1024.9
20260508061828 50 157 0.0 0.0 0.00 0.00 0.00 79 1024.8
20260508060729 50 157 0.0 0.0 0.00 0.00 0.00 79 1024.9
20260508055727 50 157 0.0 0.0 0.00 0.00 0.00 78 1025.0
20260508054729 51 157 0.0 0.0 0.00 0.00 0.00 77 1025.0
20260508052728 52 157 0.0 0.0 0.00 0.00 0.00 78 1025.0
20260508051728 52 157 0.0 0.0 0.00 0.00 0.00 78 1025.0
20260508050827 52 157 0.0 0.0 0.00 0.00 0.00 77 1024.9
20260508045927 52 157 0.0 0.0 0.00 0.00 0.00 77 1025.1
20260508044928 53 157 0.0 0.0 0.00 0.00 0.00 76 1025.1
20260508044027 53 157 0.0 0.0 0.00 0.00 0.00 76 1024.9
20260508043126 54 157 0.0 0.0 0.00 0.00 0.00 76 1024.9
20260508042143 54 157 0.0 0.0 0.00 0.00 0.00 75 1024.8
20260508041228 54 157 0.0 0.0 0.00 0.00 0.00 74 1024.7
20260508040228 55 157 0.0 0.0 0.00 0.00 0.00 73 1024.7
20260508035228 55 157 0.0 0.0 0.00 0.00 0.00 73 1024.7
20260508034228 56 157 0.0 0.0 0.00 0.00 0.00 72 1024.6
20260508033227 56 157 0.0 0.0 0.00 0.00 0.00 71 1024.6
20260508031229 58 157 0.0 0.0 0.00 0.00 0.00 68 1024.4
20260508030227 58 157 0.0 0.0 0.00 0.00 0.00 66 1024.5
20260508025228 59 157 0.0 0.0 0.00 0.00 0.00 63 1024.3
20260508024226 59 157 0.0 0.0 0.00 0.00 0.00 63 1024.3
20260508023227 60 157 0.0 0.0 0.00 0.00 0.00 60 1024.2
20260508022326 61 157 0.0 0.0 0.00 0.00 0.00 59 1024.2
20260508021327 61 157 0.0 0.0 0.00 0.00 0.00 58 1024.2
20260508020329 62 157 0.0 0.0 0.00 0.00 0.00 58 1024.2
20260508015327 63 157 0.0 0.0 0.00 0.00 0.00 58 1024.3
20260508014328 63 157 0.0 0.0 0.00 0.00 0.00 59 1024.2
20260508013328 64 157 0.0 0.0 0.00 0.00 0.00 59 1024.1
20260508012328 64 157 0.0 0.0 0.00 0.00 0.00 59 1024.0
20260508011328 64 157 0.0 1.0 0.00 0.00 0.00 59 1024.0
20260508005329 65 150 0.0 1.0 0.00 0.00 0.00 57 1024.3
20260508004329 66 164 2.0 3.0 0.00 0.00 0.00 55 1024.2
20260508003328 66 157 0.0 0.0 0.00 0.00 0.00 54 1024.1
20260508002327 66 135 0.0 1.0 0.00 0.00 0.00 53 1024.1
20260508001329 66 225 0.0 2.0 0.00 0.00 0.00 51 1024.1
20260508000327 67 185 0.0 1.0 0.00 0.00 0.00 49 1024.1
20260507235327 67 180 3.0 5.0 0.00 0.00 0.00 50 1024.1
20260507234328 67 210 0.0 0.0 0.00 0.00 0.00 48 1024.0
20260507233327 68 157 0.0 1.0 0.00 0.00 0.00 45 1024.1
20260507231326 68 187 0.0 1.0 0.00 0.00 0.00 46 1024.2
20260507225343 69 180 0.0 0.0 0.00 0.00 0.00 45 1024.5
20260507223328 69 284 0.0 2.0 0.00 0.00 0.00 44 1024.5
20260507222344 69 169 1.0 2.0 0.00 0.00 0.00 45 1024.6
20260507221428 69 126 0.0 2.0 0.00 0.00 0.00 45 1024.7
20260507220429 70 135 0.0 0.0 0.00 0.00 0.00 45 1024.7
20260507215427 70 130 0.0 1.0 0.00 0.00 0.00 46 1024.7
20260507214427 70 187 3.0 5.0 0.00 0.00 0.00 45 1024.8
20260507213526 71 80 1.0 3.0 0.00 0.00 0.00 45 1024.9
20260507212529 70 225 0.0 0.0 0.00 0.00 0.00 45 1024.9
20260507211545 71 126 0.0 1.0 0.00 0.00 0.00 44 1024.9
20260507210543 71 185 0.0 2.0 0.00 0.00 0.00 43 1024.9
20260507204628 73 88 0.0 1.0 0.00 0.00 0.00 43 1024.8
20260507203627 74 180 1.0 3.0 0.00 0.00 0.00 42 1024.9
20260507202627 75 292 0.0 1.0 0.00 0.00 0.00 41 1025.0
20260507201627 74 142 0.0 2.0 0.00 0.00 0.00 40 1024.9
20260507200626 75 174 4.0 5.0 0.00 0.00 0.00 38 1024.9
20260507195627 75 135 1.0 2.0 0.00 0.00 0.00 39 1024.9
20260507194727 74 39 0.0 3.0 0.00 0.00 0.00 39 1024.9
20260507193728 75 221 1.0 2.0 0.00 0.00 0.00 39 1024.9
20260507192727 76 167 0.0 1.0 0.00 0.00 0.00 37 1025.0
20260507191727 76 135 0.0 1.0 0.00 0.00 0.00 34 1025.1
20260507190827 75 315 0.0 0.0 0.00 0.00 0.00 35 1025.1
20260507184828 75 202 0.0 1.0 0.00 0.00 0.00 33 1025.2
20260507183828 74 93 0.0 0.0 0.00 0.00 0.00 34 1025.3
20260507182826 73 315 0.0 1.0 0.00 0.00 0.00 36 1025.3
20260507181826 73 200 0.0 1.0 0.00 0.00 0.00 38 1025.3
20260507180925 72 12 1.0 6.0 0.00 0.00 0.00 40 1025.3
20260507175927 72 157 0.0 0.0 0.00 0.00 0.00 39 1025.3
20260507174928 73 163 1.0 2.0 0.00 0.00 0.00 39 1025.3
20260507172927 70 157 0.0 1.0 0.00 0.00 0.00 41 1025.2
20260507171927 69 202 0.0 0.0 0.00 0.00 0.00 45 1025.3
20260507170942 70 180 0.0 3.0 0.00 0.00 0.00 47 1025.2